[keps] orb12271.2l.amsat

Ray Hoad ray.hoad at mypbmail.com
Thu Sep 27 19:51:29 PDT 2012


SB KEPS @ AMSAT  $ORB12271.N
2Line Orbital Elements 12271.AMSAT

HR AMSAT ORBITAL ELEMENTS FOR AMATEUR SATELLITES IN NASA FORMAT
FROM WA5QGD FORT WORTH,TX September 27, 2012
Send SUBSCRIBE KEPS/UNSUBSCRIBE KEPS to majordomo at amsat.org only
BID: ORB12271.N

DECODE 2-LINE ELSETS WITH THE FOLLOWING KEY:
1 AAAAAU 00  0  0 BBBBB.BBBBBBBB  .CCCCCCCC  00000-0  00000-0 0  DDDZ
2 AAAAA EEE.EEEE FFF.FFFF GGGGGGG HHH.HHHH III.IIII JJ.JJJJJJJJKKKKKZ
KEY: A-CATALOGNUM B-EPOCHTIME C-DECAY D-ELSETNUM E-INCLINATION F-RAAN
G-ECCENTRICITY H-ARGPERIGEE I-MNANOM J-MNMOTION K-ORBITNUM Z-CHECKSUM

TO ALL RADIO AMATEURS BT

AO-07
1 07530U 74089B   12270.57813027 -.00000027  00000-0  10000-3 0  4908
2 07530 101.4110 263.9027 0012152 083.4508 276.7938 12.53591475732751
FO-29
1 24278U 96046B   12271.82839406 -.00000053  00000-0 -19972-4 0  9421
2 24278 098.5869 359.0652 0351055 123.5602 239.9579 13.52989509795835
SO-33
1 25509U 98061B   12271.62917418  .00000587  00000-0  10606-3 0  3301
2 25509 031.4328 113.9266 0351940 019.6898 341.6941 14.28820172727318
RS-22
1 27939U 03042A   12271.58008736  .00000665  00000-0  13491-3 0  7625
2 27939 097.8037 107.1195 0012736 305.0472 054.9530 14.64141089480860
VO-52
1 28650U 05017B   12270.66254412  .00001676  00000-0  21003-3 0 02190
2 28650 097.5907 296.6291 0027561 068.2413 292.1719 14.83198654400015
HO-68
1 36122U 09072B   12271.74934125 -.00000044  00000-0  00000 0 0  8661
2 36122 100.3496 328.9750 0007161 234.5581 125.4862 13.16298241133884
UO-11
1 14781U 84021B   12270.76903177  .00000581  00000-0  82550-4 0  9862
2 14781 097.9436 329.3434 0010133 064.6835 295.5428 14.80569473534968
AO-16
1 20439U 90005D   12270.88658667  .00000178  00000-0  82130-4 0  5673
2 20439 098.4378 211.4521 0010065 216.0048 144.0454 14.32087048184550
LO-19
1 20442U 90005G   12270.89422491  .00000184  00000-0  83787-4 0 04992
2 20442 098.4053 214.1148 0011346 206.3191 153.7410 14.32303320184747
AO-27
1 22825U 93061C   12270.87959382  .00000212  00000-0  99978-4 0 02164
2 22825 098.5823 212.1494 0008427 347.2940 012.8025 14.29489027991002
IO-26
1 22826U 93061D   12270.86092664  .00000159  00000-0  78988-4 0 09733
2 22826 098.5771 212.4764 0008910 341.2498 018.8354 14.29764904991132
GO-32
1 25397U 98043D   12271.47328218  .00000143  00000-0  81502-4 0  8849
2 25397 098.3749 245.2111 0001534 023.1954 336.9292 14.23294660738572
NO-44
1 26931U 01043C   12271.86728342  .00000207  00000-0  11260-3 0  1468
2 26931 067.0507 215.6909 0006254 253.0397 107.0038 14.29834216573921
SO-50
1 27607U 02058C   12271.65718795  .00001259  00000-0  21024-3 0  8750
2 27607 064.5594 343.1582 0076340 228.0847 131.3743 14.72532902525058
CO-55
1 27844U 03031E   12270.59389723  .00000180  00000-0  10327-3 0  4710
2 27844 098.7047 277.5087 0009111 294.5336 065.4886 14.21075985479292
CO-57
1 27848U 03031J   12270.54507408  .00000164  00000-0  96142-4 0 04229
2 27848 098.7130 276.8403 0009270 301.5819 058.4452 14.20821017479222
AO-51
1 28375U 04025K   12270.46001113  .00000158  00000-0  59661-4 0 03757
2 28375 098.1597 231.0924 0084407 093.7913 267.2931 14.40989688433357
CP3
1 31129U 07012N   12270.57764837  .00000679  00000-0  16346-3 0 02746
2 31129 097.8861 272.4088 0100961 167.0251 193.3583 14.53215906288700
CO-65
1 32785U 08021C   12271.66054795  .00001545  00000-0  19521-3 0  4262
2 32785 097.7878 330.2379 0015856 086.4479 273.8564 14.83212796238958
PRISM
1 33493U 09002B   12271.74016698  .00003167  00000-0  38269-3 0  1100
2 33493 098.1849 054.8659 0018154 327.6854 032.3259 14.84379085198960
SOHLA-1
1 33496U 09002E   12271.88657654  .00000729  00000-0  12972-3 0  8449
2 33496 098.1127 022.9948 0007671 075.9667 284.2391 14.70053520197339
SO-67
1 35870U 09049F   12271.79168872  .00005143  00000-0  21131-3 0  3668
2 35870 097.2237 303.9288 0002816 132.1205 316.1836 15.24606923168246
TISAT-1
1 36799U 10035E   12271.75686719  .00002082  00000-0  26712-3 0  3846
2 36799 098.0553 348.8213 0014359 195.6663 164.4137 14.82279968119680
STUDSAT
1 36801U 10035G   12271.84549190  .00006012  00000-0  70620-3 0  4824
2 36801 098.0621 350.1249 0012745 180.5324 179.5882 14.85228821119756
FO-69
1 37227U 0        12271.50309918  .00001763  00000-0  25605-3 0 02990
2 37227 071.9752 086.1689 0017721 139.0233 221.2222 14.77188357051203
FO-70
1 37380U 0        12271.05182549  .00000610  00000-0  94361-4 0 02984
2 37380 071.9710 087.8490 0016476 131.8420 228.4153 14.76928503051025
ALMASAT-1
1 38078U 12006B   12271.56913916  .00035440  00000-0  98388-3 0  6002
2 38078 069.4789 084.8076 0741426 120.3450 247.3245 14.12820104 31995
XATCOBEO
1 38082U 12006F   12271.82395964  .00088585  00000-0  21316-2 0  5792
2 38082 069.4856 079.0447 0697883 117.2218 250.2007 14.24927290 32163
NOAA-10
1 16969U 86073A   12270.71938513 -.00000017  00000-0  10672-4 0 00804
2 16969 098.5751 297.9346 0011597 300.4847 059.5177 14.27578098354352
NOAA-11
1 19531U 88089A   12270.75817345 -.00000114  00000-0 -36727-4 0 00734
2 19531 098.7281 353.7610 0010651 297.7286 062.2797 14.14981532238874
NOAA-12
1 21263U 91032A   12270.96328852  .00000026  00000-0  29920-4 0 05657
2 21263 098.7244 292.1281 0012995 267.1247 092.8445 14.25519127111057
MET-3/5
1 21655U 91056A   12270.49021303  .00000085  00000-0  18881-3 0 00010
2 21655 082.5529 080.6154 0014330 072.1173 288.1511 13.17041117014982
MET-2/21
1 22782U 93055A   12270.68146769 -.00000051  00000-0 -59119-4 0  5377
2 22782 082.5488 311.9896 0021210 225.7391 134.2042 13.83687901963202
OKEAN-4
1 23317U 94066A   12270.85476100  .00001107  00000-0  12973-3 0 00337
2 23317 082.5385 296.1472 0022420 020.7775 339.4347 14.83960965969882
NOAA-14
1 23455U 94089A   12270.88039328  .00000014  00000-0  30640-4 0 00490
2 23455 098.8239 353.0776 0010211 029.8943 330.2810 14.13871655915161
NOAA-15
1 25338U 98030A   12270.58063395  .00000190  00000-0  99613-4 0 04191
2 25338 098.7008 256.5857 0010629 169.1917 190.9494 14.25121789747290
RESURS
1 25394U 98043A   12270.98386295  .00000050  00000-0  39179-4 0 01977
2 25394 098.3299 253.9130 0001262 350.5144 009.6012 14.24297418738896
FENGYUN1
1 25730U 99025A   12271.91835852  .00000614  00000-0  37370-3 0  7044
2 25730 098.8521 229.1587 0020664 065.1012 295.2302 14.09754668689083
OKEAN-0
1 25860U 99039A   12270.93241284  .00000575  00000-0  94397-4 0 07616
2 25860 097.9494 231.5686 0000734 035.4758 324.6500 14.74309213709563
NOAA-16
1 26536U 00055A   12270.73810919  .00000255  00000-0  16203-3 0 09089
2 26536 099.0844 314.3784 0010842 154.9028 205.2656 14.12784969619375
NOAA-17
1 27453U 02032A   12270.66263448  .00000184  00000-0  97159-4 0 08536
2 27453 098.3313 292.5472 0011042 215.9107 144.1330 14.24485371533202
NOAA-18
1 28654U 05018A   12270.91545063  .00000052  00000-0  53909-4 0 03344
2 28654 099.0580 229.9118 0013526 227.6954 132.3056 14.11703727378913
NOAA-19
1 33591U 09005A   12270.87538238  .00000236  00000-0  15447-3 0 05239
2 33591 098.8696 209.4360 0014936 093.0294 267.2561 14.11390740187356
HUBBLE
1 20580U 90037B   12271.20726304  .00002390  00000-0  16187-3 0   789
2 20580 028.4692 195.7700 0003189 071.1538 288.9500 15.02819243 30092
ISS
1 25544U 98067A   12271.74935508  .00020637  00000-0  36314-3 0  3750
2 25544 051.6482 331.6519 0017849 107.2590 351.4520 15.50264162793954
CO-58
1 28895U 05043F   12271.62960078  .00000875  00000-0  18814-3 0  2870
2 28895 097.8982 133.3246 0017333 185.8302 174.2703 14.60757213368617
FALCON
1 30776U 07006E   12270.75802840  .00005258  00000-0  33473-3 0  4451
2 30776 035.4330 016.1232 0001463 149.9442 210.1360 15.08276558305597
MAST
1 31126U 07012K   12270.98766871  .00000574  00000-0  13770-3 0 05787
2 31126 097.8761 276.1473 0093935 152.7735 207.8442 14.54261296289064
CAPE1
1 31130U 07012P   12270.55683236  .00000600  00000-0  14590-3 0  5778
2 31130 097.8861 272.0750 0101355 167.9567 192.4096 14.53073442288493
COMPASS
1 32787U 08021E   12271.74733992  .00003145  00000-0  37975-3 0  4212
2 32787 097.7890 330.7754 0016235 085.0346 275.2701 14.84379070239024
AAUSAT2
1 32788U 08021F   12270.68282206  .00002979  00000-0  35708-3 0 04128
2 32788 097.7897 330.1754 0015713 088.1604 272.1438 14.84724243238890
DO-64
1 32789U 08021G   12270.75479471  .00004727  00000-0  53955-3 0 04294
2 32789 097.8032 332.6763 0015531 084.7377 275.5602 14.86473727238965
CO-66
1 32791U 08021J   12270.76788497  .00001632  00000-0  20330-3 0 04102
2 32791 097.7880 329.4734 0017012 089.6418 270.6697 14.83719214238800
RS-30
1 32953U 08025A   12271.83169720  .00000010  00000-0  00000 0 0  1796
2 32953 082.5005 231.2990 0020381 083.0986 277.2416 12.43027797197310
PHARMSAT
1 35002U 09028B   12226.86484473  .07728342  73476-5  57159-3 0   789
2 35002 040.4341 050.6671 0012079 300.9773 059.0492 16.39309245183554
METEOR-M
1 35865U 09049A   12271.74847681 -.00000011  00000-0  14406-4 0  8178
2 35865 098.6426 324.0905 0003141 104.4310 255.7213 14.21869747157174
RS-38
1 35869U 09049E   12271.68382926  .00000020  00000-0  28509-4 0  8023
2 35869 098.6383 324.0054 0005264 108.1791 251.9975 14.22088279157185
JUGNU
1 37839U 11058B   12271.84697633  .00000620  00000-0  19019-3 0  2347
2 37839 019.9591 096.3049 0020463 274.8662 084.9304 14.12084536 49776
SRMSAT
1 37841U 11058D   12271.68754735  .00000264  00000-0  00000 0 0  2372
2 37841 019.9697 104.1580 0012708 234.7161 125.2117 14.10163947 49678
RAX-2
1 37853U 11061D   12271.85085828  .00005972  00000-0  47128-3 0  2971
2 37853 101.7057 358.8024 0243847 058.0063 304.4585 14.80886267 49584
AUBIESAT
1 37854U 11061E   12270.89872394  .00005796  00000-0  45026-3 0 03090
2 37854 101.7076 357.8032 0244701 060.1861 302.3428 14.81328491049443
HRBE
1 37855U 11061F   12270.85605828  .00005620  00000-0  43854-3 0 02972
2 37855 101.7090 357.6618 0245095 060.1561 302.3759 14.81141503049435
RS-39
1 38051U 11062C   12271.87262909  .00011944  00000-0  46983-3 0  7409
2 38051 051.6390 029.9366 0013581 046.2558 047.6193 15.25977376 37648
E-STAR
1 38079U 12006C   12271.80504012  .00073183  00000-0  17763-2 0  5342
2 38079 069.4754 080.0463 0710948 117.9298 249.6285 14.21997171 32138
GOLIAT
1 38085U 12006J   12271.66089675  .00069176  00000-0  16700-2 0  5028
2 38085 069.4795 081.0245 0717120 118.5139 249.0888 14.20802849 32093
HORYU-2
1 38340U 12025D   12271.87588310  .00001976  00000-0  33608-3 0  1685
2 38340 098.1823 211.8810 0013314 009.7931 350.3597 14.70203550 19563
RS-40
1 38736U 12041D   12270.67235512  .00000010  00000-0  00000-0 0 00664
2 38736 082.4798 319.4339 0018758 179.0918 181.0198 12.42646652007512
PROITERES
1 38756U 12047B   12271.82554833  .00000575  00000-0  95852-4 0   704
2 38756 098.2838 337.6969 0011773 217.9743 142.0625 14.73883638  2748
OBJECT D
1 38761U 0        12268.59018760  .00002110  00000-0  20545-3 0 00185
2 38761 064.6727 007.9061 0219362 286.4122 205.1345 14.79120532001566
OBJECT E
1 38762U 0        12264.52772095  .00001246  00000-0  12859-3 0 00147
2 38762 064.6719 020.3496 0219119 287.3135 173.9581 14.79110077000963
OBJECT F
1 38763U 0        12268.58833758  .00001955  00000-0  19150-3 0 00162
2 38763 064.6732 007.9137 0219633 286.4343 195.0416 14.79113104001400
OBJECT G
1 38764U 0        12268.59053544  .00001915  00000-0  18839-3 0 00193
2 38764 064.6735 007.9112 0219414 286.3324 204.3843 14.79048217001569
OBJECT H
1 38765U 0        12268.79450975  .00002431  00000-0  23316-3 0 00173
2 38765 064.6726 007.2677 0219363 286.2238 218.6495 14.79262528001592
OBJECT J
1 38766U 0        12268.58823291  .00002514  00000-0  24159-3 0 00174
2 38766 064.6734 007.9103 0219070 286.1068 195.5813 14.79138683001566
/EX




More information about the Keps mailing list